Weather in Pushkinskoye

Russia / Republic of Kalmykia     46°06′36″N   41°47′55″E
temp.,
°C
wind,
m/s
gust,
m/s
humid.,
%
clouds,
%
prec.,
mm/h
press.,
hPa
HPBL,
m
18 may, tue
tue1800:00+17wsw51196100 2.3 1009509
03:00+15w6119595 4.5 1010594
06:00+15w51193100 0.1 1010585
09:00+16w5886100 0.1 1010684
12:00+20w5767100 0.0 10111220
15:00+22w465915 0.0 10111504
18:00+21wsw23680 0.0 1011319
21:00+16sse23785 0.0 101120
19 may, wed
wed1900:00+15se338091 0.0 101024
03:00+14ese4784100 0.0 1009106
06:00+15ssw4893100 1.4 1010275
09:00+15ne119248 5.9 1009224
12:00+12w7169140 4.8 1012585
15:00+19wsw812640 4.8 10131671
18:00+17wsw714740 0.0 10141224
21:00+15wsw71469100 0.0 1015927
20 may, thu
thu2000:00+13wsw716695 0.0 1015780
03:00+11ssw49825 0.0 1015199
06:00+12s488097 0.0 1016176
09:00+18sw46615 0.0 1016844
12:00+21sw35495 0.0 10151427
15:00+22wsw234432 0.0 10151335
18:00+21n22590 0.0 101457
21:00+16e46670 0.0 101480
21 may, fri
fri2100:00+14e48762 0.0 1013112
03:00+14e513765 0.0 1012225
06:00+14ese6167385 0.0 1012342
09:00+20ese814645 0.0 1011538
12:00+25ese912575 0.0 1010790
15:00+27ese8135798 0.0 1009945
18:00+25ese7156119 0.0 1008585
21:00+20ese614665 0.0 1008369
22 may, sat
sat2200:00+19ese613635 0.0 1008382
03:00+16ese61366100 0.0 1008298
06:00+16ese61475100 0.0 1008304
09:00+19ese5107798 0.0 1008358
12:00+27ese685787 0.0 1007619
15:00+30e234899 0.0 10071312
18:00+28nnw346477 0.0 100777
21:00+22e51166100 0.0 1007166